Weather History for KBWG - May, 2013

Change the Weather History Date:

Friday, May 24, 2013

  Actual Average Record
Temperature  
Mean Temperature 62 °F 69 °F  
Max Temperature 73 °F 80 °F 96 °F (1912)
Min Temperature 51 °F 57 °F 39 °F (1893)
Degree Days  
Heating Degree Days 3 1  
Month to date heating degree days 54 67  
Since 1 July heating degree days 3872 4036  
Cooling Degree Days 0 5  
Month to date cooling degree days 95 77  
Year to date cooling degree days 148 113  
Growing Degree Days 14 (Base 50)    
Moisture  
Dew Point 46 °F    
Average Humidity 54    
Maximum Humidity 77    
Minimum Humidity 31    
Precipitation  
Precipitation 0.00 in 0.17 in 1.92 in (2000)
Month to date precipitation 4.29 4.39  
Year to date precipitation 23.89 20.71  
Snow  
Snow 0.00 in 0.00 in 0.00 in ()
Month to date snowfall 0.0 0.0  
Since 1 July snowfall 3.8 9.1  
Snow Depth 0.00 in    
Sea Level Pressure  
Sea Level Pressure 30.27 in    
Wind  
Wind Speed 5 mph (NNE)    
Max Wind Speed 14 mph    
Max Gust Speed 20 mph    
Visibility 10 miles    
Events      
T = Trace of Precipitation, MM = Missing Value Source: NWS Daily Summary

Daily Weather History Graph

Daily Weather History Graph

Search for Another Location

Airport or City:

Trip Planner

Search our weather history database for the weather conditions in past years. The results will help you decide how hot, cold, wet, or windy it might be!

Date:

Astronomy

May. 24, 2013 Rise Set
Actual Time 5:31 AM CDT 7:54 PM CDT
Civil Twilight 5:01 AM CDT 8:24 PM CDT
Nautical Twilight 4:24 AM CDT 9:00 PM CDT
Astronomical Twilight 3:44 AM CDT 9:41 PM CDT
Moon 7:36 PM CDT (5/24) 5:01 AM CDT (5/24)
Length of Visible Light 15h 22m
Length of Day
14h 22m
Full, 100% of the Moon is Illuminated
May 24
Full
May 24
Full
May 31
Last Quarter
Jun 8
New
Jun 16
First Quarter

Hourly Weather History & Observations

Time (CDT) Temp. Dew Point Humidity Pressure Visibility Wind Dir Wind Speed Gust Speed Precip Events Conditions
12:53 AM 59.0 °F 48.9 °F 69% 30.13 in 10.0 mi North 10.4 mph 20.7 mph N/A   Overcast
1:53 AM 57.9 °F 48.9 °F 72% 30.14 in 10.0 mi NNE 9.2 mph - N/A   Overcast
2:53 AM 57.0 °F 48.0 °F 72% 30.17 in 10.0 mi NNE 10.4 mph 16.1 mph N/A   Overcast
3:53 AM 57.0 °F 48.0 °F 72% 30.19 in 10.0 mi North 6.9 mph - N/A   Overcast
4:53 AM 55.0 °F 46.0 °F 72% 30.20 in 10.0 mi North 4.6 mph - N/A   Mostly Cloudy
5:00 AM 55.4 °F 46.4 °F 72% 30.22 in 10.0 mi NNE 5.8 mph - N/A   Mostly Cloudy
5:19 AM 55.4 °F 46.4 °F 72% 30.22 in 10.0 mi North 5.8 mph - N/A   Mostly Cloudy
5:33 AM 55.4 °F 46.4 °F 72% 30.22 in 10.0 mi North 6.9 mph - N/A   Overcast
5:53 AM 55.9 °F 46.9 °F 72% 30.23 in 10.0 mi North 5.8 mph - N/A   Overcast
6:53 AM 55.9 °F 46.9 °F 72% 30.26 in 10.0 mi Variable 4.6 mph - N/A   Clear
7:18 AM 55.4 °F 46.4 °F 72% 30.28 in 10.0 mi North 5.8 mph - N/A   Mostly Cloudy
7:53 AM 57.9 °F 46.9 °F 67% 30.28 in 10.0 mi NNE 8.1 mph - N/A   Mostly Cloudy
8:53 AM 57.9 °F 46.9 °F 67% 30.31 in 10.0 mi NNE 6.9 mph - N/A   Overcast
9:25 AM 60.8 °F 48.2 °F 63% 30.32 in 10.0 mi NNW 4.6 mph - N/A   Mostly Cloudy
9:34 AM 60.8 °F 48.2 °F 63% 30.32 in 10.0 mi North 5.8 mph - N/A   Mostly Cloudy
9:45 AM 59.0 °F 46.4 °F 63% 30.32 in 10.0 mi NNE 4.6 mph - N/A   Mostly Cloudy
9:53 AM 63.0 °F 48.0 °F 58% 30.32 in 10.0 mi NNE 10.4 mph - N/A   Scattered Clouds
10:53 AM 64.0 °F 46.9 °F 54% 30.32 in 10.0 mi NNW 8.1 mph - N/A   Partly Cloudy
11:53 AM 66.0 °F 46.0 °F 48% 30.32 in 10.0 mi Variable 4.6 mph - N/A   Clear
12:53 PM 68.0 °F 44.1 °F 42% 30.31 in 10.0 mi North 8.1 mph - N/A   Clear
1:53 PM 70.0 °F 43.0 °F 38% 30.31 in 10.0 mi North 8.1 mph 16.1 mph N/A   Clear
2:53 PM 71.1 °F 44.1 °F 38% 30.31 in 10.0 mi Variable 5.8 mph - N/A   Clear
3:53 PM 72.0 °F 43.0 °F 35% 30.30 in 10.0 mi NNE 8.1 mph - N/A   Clear
4:53 PM 71.1 °F 41.0 °F 34% 30.29 in 10.0 mi NE 3.5 mph - N/A   Clear
5:53 PM 71.1 °F 39.0 °F 31% 30.28 in 10.0 mi NE 4.6 mph - N/A   Clear
6:53 PM 69.1 °F 37.9 °F 32% 30.27 in 10.0 mi NNE 4.6 mph - N/A   Clear
7:53 PM 63.0 °F 43.0 °F 48% 30.26 in 10.0 mi NNE 3.5 mph - N/A   Clear
8:53 PM 61.0 °F 44.1 °F 54% 30.27 in 10.0 mi Calm Calm - N/A   Clear
9:53 PM 59.0 °F 45.0 °F 60% 30.29 in 10.0 mi Calm Calm - N/A   Clear
10:53 PM 57.9 °F 44.1 °F 60% 30.31 in 10.0 mi Calm Calm - N/A   Clear
11:53 PM 54.0 °F 46.0 °F 75% 30.32 in 10.0 mi Calm Calm - N/A   Clear